Theta_e
332 325 323 312 300 298 295 299 299 300 303 308 315 314 313 314 311 305 329 333 334 333 334 334 336 333 332 332 331 331 331 331 331 331 331 333 332 333 336 336 336 335 335 333 333 334 336 335 336
330 327 315 305 294 293 296 302 299 303 308 314 316 314 313 311 318 321 325 333 333 332 332 332 334 333 332 331 331 330 330 330 331 331 333 333 334 333 334 335 334 336 334 334 334 336 335 335 336
330 325 309 300 294 292 295 300 304 306 313 314 314 318 315 313 318 320 330 332 331 329 330 331 333 332 331 330 330 330 330 330 329 329 330 331 332 334 333 334 333 333 332 332 334 334 333 334 335
322 318 309 297 293 297 300 306 308 308 314 317 316 312 319 323 322 327 331 332 329 329 330 332 333 331 330 330 329 329 329 328 328 328 328 330 330 332 333 333 332 331 332 332 333 331 331 333 333
320 314 304 294 292 298 307 309 310 311 312 313 315 311 315 323 328 329 330 331 328 328 328 329 332 329 329 329 329 328 327 327 327 327 327 328 328 329 332 332 330 330 331 331 331 330 330 330 330
312 312 301 293 293 301 309 312 311 311 313 314 314 314 316 327 326 327 332 330 330 326 325 325 325 328 327 327 326 326 326 325 324 324 324 323 324 326 328 331 329 329 331 329 328 328 328 327 327
310 307 302 300 296 301 309 312 310 311 312 313 318 312 319 322 325 329 330 330 328 325 322 320 321 323 325 325 324 323 322 321 321 321 321 321 322 323 324 326 328 328 329 328 327 326 325 324 324
310 307 301 301 298 299 310 310 313 314 313 319 319 311 313 322 327 329 329 328 326 323 321 318 317 318 316 318 322 321 320 319 319 318 318 318 319 321 320 320 327 327 328 326 324 323 322 321 321
312 303 299 300 301 305 310 309 314 317 315 318 319 318 321 325 327 326 325 323 322 320 319 318 318 316 315 315 316 317 318 318 318 317 317 316 313 313 315 318 324 326 327 325 323 322 319 318 318
309 304 299 299 299 306 310 311 312 312 312 313 318 323 325 325 323 323 321 318 317 316 316 317 317 316 315 317 314 314 314 313 314 313 313 313 312 311 313 313 321 323 323 323 322 319 315 312 306
307 303 304 301 304 308 309 308 312 311 308 312 315 317 321 321 321 322 321 319 318 316 314 316 318 316 314 315 314 313 313 312 312 312 312 312 312 311 311 311 317 319 317 318 317 311 306 303 302
304 306 302 303 305 309 308 311 308 307 307 314 320 321 320 319 319 321 318 319 318 314 313 315 318 317 315 313 313 312 312 311 311 312 312 311 310 310 310 311 313 319 319 317 313 308 302 301 301
302 300 302 304 305 309 311 307 306 306 311 319 321 321 318 318 318 320 321 322 320 314 313 314 316 317 316 314 313 312 310 311 311 312 313 312 310 309 310 310 311 315 318 315 310 306 303 299 299
302 300 302 305 304 305 306 304 307 307 313 317 318 317 318 320 320 319 322 321 319 316 313 314 316 316 317 314 313 312 311 312 312 312 312 313 311 310 309 310 311 314 317 314 311 306 301 299 297
303 298 301 302 302 301 304 300 301 309 313 315 315 316 317 319 321 318 321 323 322 319 316 314 316 317 316 315 315 313 313 313 312 312 312 312 312 310 309 309 309 313 315 315 309 305 301 298 297
299 301 294 299 301 301 300 294 302 308 310 310 311 314 315 317 319 320 322 323 324 322 319 316 316 316 317 318 317 315 314 313 315 314 313 312 312 311 309 308 308 311 314 312 304 301 298 296 294
298 293 296 296 303 300 299 294 299 301 306 307 309 311 314 315 317 321 323 323 324 323 319 316 314 313 316 315 314 312 313 314 313 313 313 313 312 311 308 307 308 309 310 308 306 302 298 294 293
292 295 297 296 300 302 299 297 298 300 301 300 302 308 311 313 316 318 321 321 322 324 321 318 315 313 314 313 312 310 311 313 313 312 312 313 310 309 308 307 307 308 307 308 308 303 298 295 293
300 299 296 297 302 300 296 295 296 299 297 296 298 299 300 302 303 307 313 317 317 321 322 323 317 315 312 309 308 308 310 308 309 309 311 309 309 309 307 306 306 306 306 306 307 303 297 294 292
300 297 293 295 300 299 295 293 297 298 296 297 297 298 298 300 302 304 304 305 306 312 315 319 321 318 315 314 313 312 309 308 308 308 307 307 307 307 307 307 306 305 305 305 305 298 296 295 291
298 296 294 293 296 297 294 292 293 294 296 297 296 297 299 300 300 302 303 303 303 304 306 309 312 317 318 316 316 315 313 311 308 307 306 306 306 306 305 305 304 304 308 307 306 301 298 295 291
293 299 298 294 294 287 294 283 288 290 291 293 295 296 298 299 301 302 302 302 303 303 305 306 307 309 311 312 315 314 312 310 310 309 309 309 308 306 303 303 303 305 306 306 306 305 302 300 295
293 299 297 296 291 290 289 285 285 289 288 290 294 297 297 298 299 300 301 303 303 304 303 304 305 306 307 308 309 309 311 311 312 311 310 310 307 305 304 303 302 302 304 305 305 305 302 302 301
299 295 294 294 289 282 286 283 282 285 288 290 294 296 298 297 297 299 301 302 302 302 302 301 302 303 304 305 306 306 305 305 305 306 308 309 307 305 303 302 302 302 302 302 303 304 304 303 302
295 290 281 280 278 280 284 282 285 290 291 293 293 293 294 295 294 295 296 297 298 298 299 300 300 300 301 302 303 303 303 303 302 303 305 305 306 306 305 302 301 301 301 302 303 303 303 303 303
290 289 283 277 278 279 283 280 285 292 293 295 295 294 293 292 294 295 295 294 295 295 296 296 297 297 298 298 298 300 301 301 301 302 302 303 302 304 305 302 300 301 301 301 301 301 302 302 301
288 286 290 282 280 279 280 283 289 290 290 291 292 291 291 291 292 294 294 294 293 293 293 294 294 294 295 295 295 295 296 297 298 298 299 300 301 303 303 302 301 301 301 300 300 299 300 300 300
291 292 283 284 276 276 278 280 283 286 288 290 290 290 291 291 292 293 293 293 292 290 289 289 291 292 292 292 292 293 293 294 295 296 296 297 298 299 299 300 300 301 300 300 299 299 299 299 299
287 286 287 286 283 278 276 279 287 290 291 290 291 292 292 292 292 293 293 291 289 287 287 287 287 287 288 289 290 290 290 291 292 292 293 294 296 297 297 298 298 299 299 299 298 298 298 297 297
287 287 288 280 279 280 279 279 288 291 293 292 291 292 291 291 291 291 291 289 286 286 286 286 286 286 287 287 288 288 289 289 289 289 290 291 292 293 293 294 295 296 296 297 298 297 297 296 295
Wind_Speed
9 8 1 3 4 4 3 1 4 3 6 2 4 11 11 5 4 6 11 17 18 13 10 8 9 11 11 11 12 12 12 12 12 13 13 13 14 14 15 14 15 15 17 16 14 14 16 16 14
5 4 4 1 5 2 5 5 6 4 5 6 11 6 8 4 4 13 8 14 17 13 10 7 9 11 11 12 12 12 13 12 12 12 13 14 14 13 14 14 16 15 17 16 14 18 18 16 17
4 3 3 3 3 4 3 3 7 6 6 4 5 8 5 2 2 5 12 15 14 13 11 8 9 11 12 12 12 12 13 12 12 11 12 13 14 15 14 14 14 14 16 14 15 18 16 16 18
2 4 3 3 4 2 3 6 7 3 7 8 8 8 5 6 4 9 14 17 15 12 11 9 10 11 12 13 12 12 12 12 12 11 11 12 13 14 14 13 14 14 14 14 16 16 15 18 19
3 3 1 1 1 2 4 5 4 6 4 6 3 3 5 5 14 12 15 14 16 11 8 8 11 11 12 13 13 12 11 11 11 11 12 12 13 14 16 13 13 13 13 15 15 15 14 16 17
4 1 1 3 3 4 3 6 7 5 5 5 8 6 3 9 10 8 14 13 13 13 9 7 9 10 11 11 11 11 11 10 10 10 11 12 12 12 14 14 12 11 12 13 14 13 14 14 16
4 2 2 3 5 4 5 7 6 7 5 4 9 6 6 6 8 11 14 14 12 11 10 6 6 8 10 10 10 10 10 9 9 8 8 9 10 11 12 12 10 11 12 14 12 12 12 13 15
3 2 2 3 5 4 5 3 4 7 1 3 5 7 7 7 10 11 13 12 11 8 8 7 6 5 5 5 8 7 7 6 7 6 5 5 6 7 9 8 10 10 12 14 10 11 12 13 12
0 2 2 6 1 6 4 4 3 2 7 6 3 3 8 13 12 11 11 11 8 6 5 6 6 6 6 5 4 5 6 4 4 4 6 4 2 4 5 5 6 9 11 11 8 8 7 7 8
3 1 2 4 4 3 4 5 6 5 5 5 5 7 8 8 11 11 11 7 5 6 4 5 6 6 6 4 5 3 3 3 4 4 4 3 2 1 2 2 4 5 6 7 5 6 10 9 4
3 2 4 2 4 5 7 4 3 10 2 5 9 10 6 6 8 11 9 8 7 6 4 5 6 6 6 4 3 2 2 2 2 3 3 3 2 3 2 0 1 2 3 2 4 4 3 5 4
5 2 5 7 6 2 6 6 4 3 3 4 16 14 8 7 6 8 7 7 8 7 7 6 7 6 6 4 3 4 3 3 2 2 2 3 2 2 3 2 2 3 2 3 3 3 4 5 5
4 0 3 8 7 5 7 4 5 3 3 8 13 10 9 7 5 6 9 8 9 8 7 7 7 7 6 5 3 4 3 3 3 3 2 2 1 2 1 1 2 0 3 3 4 4 4 4 4
5 4 2 4 4 5 5 2 3 4 6 8 8 8 8 10 9 4 3 9 10 7 7 7 5 5 5 4 4 3 3 4 3 4 3 2 2 1 0 2 2 2 2 3 4 4 5 4 3
3 7 1 3 4 3 2 3 2 4 5 8 7 7 6 9 7 7 5 8 9 7 8 8 7 7 6 6 5 5 5 4 4 4 5 5 3 2 1 2 3 3 3 2 3 3 3 3 3
5 4 3 6 5 2 5 4 1 3 7 7 7 6 7 7 10 8 7 4 5 6 7 6 5 6 6 5 4 3 3 4 4 4 4 5 5 4 3 2 3 3 2 3 2 2 2 2 2
2 6 6 3 1 4 0 4 3 2 5 6 7 7 6 6 8 7 5 5 6 7 7 6 4 3 2 4 3 2 2 1 1 3 3 5 4 4 3 3 3 1 2 2 3 2 2 2 2
6 5 4 6 1 6 3 6 3 1 2 3 2 6 8 8 8 8 9 6 7 7 7 5 4 4 4 3 1 1 2 3 3 3 2 3 3 4 3 4 4 3 2 3 2 3 4 2 3
11 8 9 7 2 6 4 7 6 6 7 7 7 9 9 9 5 12 7 0 2 4 5 7 6 6 5 2 2 3 3 3 3 3 5 5 4 4 4 4 4 4 4 4 4 2 3 2 3
13 14 8 6 2 5 3 5 6 6 4 6 6 7 7 5 9 8 7 8 7 5 4 4 7 7 6 3 3 3 3 2 2 1 4 5 6 5 4 4 5 5 4 5 5 5 3 2 4
4 14 9 9 8 6 6 2 3 4 5 7 8 6 6 7 7 6 7 7 6 7 7 6 5 1 3 6 2 1 1 2 1 2 3 5 6 6 6 5 5 5 4 5 4 6 7 5 5
5 5 12 15 5 5 0 3 4 3 5 7 6 6 5 6 5 6 7 7 6 5 5 6 6 7 6 6 2 2 2 2 2 3 3 5 6 6 6 5 5 6 5 6 6 5 7 4 6
6 7 12 9 5 4 2 3 4 7 3 5 5 5 5 5 5 6 6 5 4 5 5 6 7 7 6 6 5 3 5 4 3 4 6 4 3 5 6 6 6 7 6 8 9 7 8 8 8
10 14 13 3 4 1 6 4 5 6 8 7 5 5 6 5 5 5 4 5 5 5 6 6 6 5 6 5 5 4 4 5 4 4 6 4 2 3 5 6 6 7 8 9 9 10 9 10 10
5 7 3 2 0 4 3 3 7 7 11 12 12 9 7 6 5 5 6 5 6 6 6 4 5 5 5 5 5 4 4 4 5 6 5 5 4 3 6 7 8 8 10 10 10 11 12 11 10
5 4 3 5 5 4 1 6 5 6 9 11 9 8 7 7 6 6 6 5 5 5 5 5 5 4 4 4 4 4 5 3 4 5 5 4 4 5 7 6 7 9 10 9 9 9 10 12 11
2 3 2 4 2 3 4 2 5 4 7 8 10 8 7 7 6 7 6 5 4 4 3 3 3 3 3 4 4 4 4 5 5 7 5 4 6 6 7 7 7 9 10 10 10 9 12 12 13
3 2 3 2 4 4 4 4 5 15 16 13 12 9 8 7 7 6 5 5 3 2 1 2 1 2 3 4 4 3 5 5 6 6 7 7 7 7 7 9 8 9 9 11 11 10 11 13 12
3 2 3 1 3 5 3 7 6 23 21 19 13 10 8 8 8 7 6 5 4 2 1 2 4 4 5 5 4 5 5 6 6 6 6 6 6 8 9 10 10 10 10 11 10 12 13 14 14
2 4 5 4 5 2 2 7 5 16 19 17 12 10 8 9 8 7 7 7 5 3 2 4 4 5 5 5 5 6 6 6 6 6 7 6 8 7 8 9 10 11 12 12 11 13 12 14 15
Wind_Direction
314 319 229 49 71 65 252 275 122 84 51 324 59 83 104 56 44 135 106 120 114 111 108 100 101 95 88 81 73 68 66 65 65 64 62 51 52 45 44 51 60 63 61 53 53 47 58 51 46
288 300 42 70 87 102 271 168 113 75 127 100 85 121 54 53 8 116 98 123 121 124 110 99 97 91 86 79 73 69 69 67 66 64 57 55 50 51 45 56 53 57 61 56 52 57 54 50 42
283 182 80 114 155 169 252 88 133 117 100 71 93 54 82 136 25 74 130 124 111 105 105 102 96 90 83 79 74 72 71 65 64 55 55 51 50 47 47 54 61 59 56 57 61 61 55 56 47
319 22 14 104 227 256 94 156 115 68 28 70 116 73 71 234 116 134 124 112 101 102 102 98 94 87 81 79 75 70 66 62 57 55 53 49 44 43 43 54 63 57 64 62 68 66 63 58 55
47 60 323 253 234 96 89 126 81 91 104 29 89 86 78 46 114 121 109 113 112 107 101 92 88 88 87 85 79 72 68 65 59 55 50 48 39 38 34 53 55 61 70 65 62 67 61 61 61
60 109 300 229 168 108 84 131 115 105 97 139 82 94 77 133 109 120 118 117 119 118 108 95 85 82 88 88 86 82 74 67 61 56 52 51 46 38 36 36 58 62 72 70 68 65 64 59 60
102 75 234 298 158 120 149 147 130 122 112 99 147 91 130 131 144 121 121 120 121 121 116 118 119 105 91 88 88 83 77 69 61 57 54 49 52 52 41 27 51 67 83 73 69 66 62 57 56
96 126 339 258 168 177 163 89 40 95 122 106 128 148 172 162 127 117 122 119 118 120 128 147 138 132 114 103 104 103 95 85 71 66 55 27 19 52 53 36 25 76 89 92 85 85 69 55 44
65 94 109 0 321 146 154 109 21 1 90 51 40 146 152 140 128 126 118 107 107 102 135 154 155 149 135 130 134 126 118 105 73 27 24 43 67 69 74 56 41 73 103 98 109 98 72 53 33
86 259 65 223 288 168 126 108 133 99 106 76 65 47 91 115 137 135 137 130 122 132 174 173 142 148 160 144 159 181 133 130 78 51 36 32 66 21 95 99 97 93 92 103 100 50 49 54 40
126 118 276 326 306 267 135 104 108 130 176 175 168 155 139 130 132 143 145 158 164 166 185 188 160 154 140 144 150 129 113 108 90 66 19 356 22 29 28 223 220 164 150 124 113 97 80 79 74
128 134 327 339 324 178 130 127 95 61 180 273 158 157 147 156 159 152 162 168 160 164 184 210 163 155 163 155 157 150 139 136 135 137 54 39 18 5 359 356 316 204 200 146 119 110 99 80 83
96 211 71 295 322 80 94 76 126 94 107 87 125 137 151 157 178 180 192 180 160 165 185 216 179 166 167 166 161 142 155 136 155 145 116 97 59 1 0 318 306 6 166 156 142 137 122 114 105
128 83 105 244 343 36 104 101 73 222 125 106 114 138 153 177 202 233 253 148 162 160 179 200 206 168 157 153 162 166 153 170 168 160 175 178 167 203 310 300 295 249 125 177 162 167 150 147 133
62 105 307 342 351 27 69 57 254 129 137 137 144 160 166 183 188 222 249 169 164 181 172 187 189 173 168 184 177 177 183 179 184 190 185 188 198 211 231 270 269 226 166 156 143 136 113 127 145
106 76 152 134 329 349 265 167 152 138 129 147 145 159 174 192 187 209 224 179 129 137 159 147 142 157 184 183 188 189 194 195 208 192 197 190 203 215 214 254 269 245 194 135 141 132 124 146 178
261 132 145 132 94 252 45 126 149 140 177 188 180 179 193 193 200 201 202 133 115 138 146 159 152 160 163 82 79 77 135 209 255 232 207 208 208 229 241 224 267 235 233 173 171 188 181 186 188
142 144 140 141 78 8 41 83 53 232 194 76 113 223 175 189 195 188 185 172 163 150 153 153 157 186 166 126 72 333 291 269 265 274 290 262 231 230 253 276 262 248 231 240 186 179 202 201 190
147 155 129 112 145 73 9 79 50 45 55 50 51 54 54 52 24 43 25 70 156 153 157 160 175 191 161 150 169 237 227 226 251 252 271 283 276 253 246 264 273 256 225 228 200 166 180 196 148
174 135 111 74 100 103 140 59 69 55 63 83 87 68 65 58 38 45 49 53 48 40 341 192 186 187 191 185 188 191 185 207 177 237 269 267 266 257 245 244 262 259 255 252 189 169 178 197 181
109 158 159 136 115 45 154 106 100 45 63 55 43 63 57 73 65 41 42 42 43 35 15 20 13 279 187 207 190 228 59 50 25 251 254 251 239 240 235 237 251 267 249 244 211 202 193 202 200
102 13 125 137 141 159 348 193 189 130 80 63 54 64 74 76 74 67 53 47 38 23 29 28 24 19 5 7 346 243 217 273 239 237 235 246 230 235 227 241 249 260 267 262 244 208 218 206 215
84 111 113 107 86 105 237 131 230 145 116 110 100 109 111 120 112 97 98 97 70 47 41 32 29 25 10 10 7 353 319 302 310 309 296 277 240 219 212 225 236 250 256 256 248 236 213 218 232
111 86 74 118 118 12 217 146 221 185 173 149 145 159 150 141 115 98 101 94 73 48 49 49 47 31 25 26 4 350 320 311 315 311 310 307 290 251 241 242 241 242 252 259 258 257 239 229 228
146 151 91 81 32 215 133 147 228 174 155 156 157 172 171 152 124 104 88 68 63 58 53 59 58 42 26 29 18 355 322 304 295 298 297 298 278 257 243 227 230 235 239 243 250 249 246 239 239
162 193 174 166 180 166 16 225 267 156 143 151 163 169 168 152 141 119 105 90 75 69 63 61 53 42 19 10 354 345 338 328 318 309 309 306 293 282 280 252 240 241 245 247 250 260 260 252 240
303 53 2 104 40 100 175 345 359 135 150 160 174 171 170 154 147 135 113 102 100 88 75 87 67 22 6 352 347 341 336 334 312 309 301 286 291 291 288 268 253 249 250 247 245 248 257 253 251
112 192 94 335 132 219 227 206 224 188 186 188 190 181 180 164 148 148 138 138 135 111 66 50 299 271 291 319 326 326 328 321 307 305 301 297 291 285 282 283 274 266 254 252 250 256 255 256 253
163 238 223 148 186 182 176 250 203 193 188 186 189 183 167 157 175 171 166 165 168 178 197 311 315 318 320 327 317 319 308 305 302 294 290 285 283 291 290 293 289 281 268 255 249 254 261 256 254
268 236 194 178 198 223 159 272 337 191 184 176 177 173 163 172 180 181 177 182 199 216 270 294 309 315 305 293 294 300 298 299 297 289 283 282 286 289 286 291 290 287 282 279 269 264 260 261 264